Location: Oberkirch
(48.5323°N, 8.0787°E)
Time: 23:50:01
(UTC+00:00)

CUTE 1.7 + AOD 2 - Pass Details

Date: 14 March 2026
Orbit: 535 x 545 km, 97.8° (Epoch: 14 April)

Event Time Altitude Azimuth Distance (km) Brightness Sun altitude
Rises 02:45:25 0° 31° (NNE) 2,719 ? -28.9°
Reaches altitude 10° 02:48:26 10° 56° (ENE) 1,821 ? -28.5°
Maximum altitude 02:50:37 14° 90° (E) 1,559 ? -28.2°
Drops below altitude 10° 02:52:47 10° 124° (ESE) 1,814 ? -27.9°
Enters shadow 02:54:02 - 137° (SE) 2,142 ? -27.7°
